Погода в Зимняцком

Россия / Волгоградская область     49°42′51″N   42°52′21″E
темп.,
°C
ветер,
м/с
пор.,
м/с
влажн.,
%
обл.,
%
осадки,
мм/ч
давл.,
гПа
погр.,
м
8 мая, сб
сб800:00+8с228946 0.0 101723
03:00+7ссз229134 0.0 101717
06:00+8св2284100 0.0 101789
09:00+13юв225693 0.0 1017495
12:00+18ю4544100 0.0 10151160
15:00+21ю684443 0.0 10132230
18:00+18ю51160100 0.0 1011296
21:00+17ю51268100 0.1 1011320
9 мая, вс
вс900:00+15ю3985100 0.5 1010189
03:00+13юз2294100 3.1 101028
06:00+12сз5895100 3.2 1010475
09:00+8сз7991100 6.2 1012534
12:00+7ссз71292100 4.8 1014631
15:00+7ссз61193100 9.8 1015816
18:00+7ссз71289100 4.1 1016896
21:00+7ссз71287100 5.6 1018963
10 мая, пн
пн1000:00+7ссз81388100 1.3 1018981
03:00+6ссз81388100 2.4 1017969
06:00+6ссз101592100 4.6 1017897
09:00+6с101792100 11.1 1015939
12:00+7ссв91793100 4.4 1015757
15:00+8с91693100 5.2 1014804
18:00+9ссв101793100 1.1 1013648
21:00+10всв61192100 1.4 1014565
11 мая, вт
вт1100:00+8вюв51095100 2.1 1014489
03:00+7вюв51092100 2.9 1016613
06:00+7вюв6977100 0.1 1018898
09:00+9в7107695 0.1 10201128
12:00+10вюв8117369 0.2 10211126
15:00+13юв8115893 0.3 10211701
18:00+11юв4672100 0.0 1023661
21:00+8вюв2279100 0.0 102312
12 мая, ср
ср1200:00+7всв3481100 0.0 102341
03:00+7всв35873 0.0 102271
06:00+9всв248513 0.0 1022123
09:00+15всв446115 0.0 1021655
12:00+18св224737 0.0 10201403
15:00+19ссв3349100 0.0 10191505
18:00+18св236957 0.0 1019221
21:00+15св348777 0.1 101877